Retour au catalogue

STARLINK-37768

ActifCommunicationsSSO
NORAD 69331·PAYLOAD·🇺🇸 United States

Lancé Jun 3, 2026 depuis Vandenberg Space Force Base

Loading…

Prochains Passages (prochaines 24 heures)

TLE

FraisSource: CelesTrak SupGP

Époque: Sep 14, 2026, 21:14 UTC

1 69331C 26122C   26257.88520833 -.00032170  00000+0 -99741-3 0  2578
2 69331  97.2825 286.5212 0001684  94.9321 300.1563 15.33493903    19

Suivez STARLINK-37768 en temps réel avec AllMySat

Download on the App Store